STARLINK-35950

Last updated on Wed Dec 31 2025 00:02:06 GMT+0000 (Coordinated Universal Time)

1 66622U 25271F 25364.54306158 .00092977 00000+0 23093-2 0 9993 2 66622 53.1608 102.9959 0004387 34.6358 325.4932 15.39572715 6956
UTC large
Height (km)
Speed (km/s)
/
Latitude / Longitude
Inclination (degrees)
Orbital Period (minutes)
Azimuth
Elevation
Range (km)
Doppler Factor

Next 0 passes for location: London (51.5072 / 0.1276)

Sorry there are no passes over London.